GFSFLT2_925_rhum_024.txt.gz
RH
97 99 97 64 47 41 43 25 52 49 55 45 35 33 33 36 36 38 42 48 46 47 50 46 40 39 35 34 33 33 33 42
100 95 87 85 67 64 41 37 42 51 35 33 34 34 38 40 39 41 42 46 49 48 48 45 40 38 36 36 35 34 34 38
94 84 82 74 60 46 43 53 46 33 35 37 36 37 38 40 43 46 49 50 51 50 44 41 39 37 36 36 35 35 36 41
78 80 86 71 58 62 42 28 32 36 36 37 39 40 40 42 47 49 52 54 56 48 42 38 35 35 34 34 35 35 35 39
100 91 83 70 60 50 24 29 39 40 44 54 54 44 43 47 59 60 54 51 46 40 36 35 35 36 37 37 36 35 35 42
86 74 67 64 86 60 38 42 43 49 62 67 63 61 62 58 59 52 46 41 40 39 38 37 38 39 40 39 38 38 38 34
79 77 84 90 72 53 38 46 49 53 61 66 66 68 67 54 50 47 44 43 42 40 38 39 41 43 43 41 40 38 37 36
74 73 88 91 69 51 43 51 60 67 72 69 71 65 61 55 50 47 45 42 41 41 43 44 45 46 44 42 40 38 38 36
77 69 91 88 69 53 52 62 74 74 72 73 71 64 57 52 50 47 44 43 42 44 47 49 49 48 46 43 40 38 36 33
75 83 87 83 69 51 65 76 78 75 78 76 68 59 56 54 51 43 40 42 46 48 49 48 47 48 48 44 39 36 34 33
74 77 81 75 67 59 69 81 80 79 78 76 69 66 60 52 43 40 45 47 48 49 49 45 43 46 46 44 39 37 36 34
69 76 74 73 73 76 74 83 84 80 79 78 79 68 55 46 43 46 50 49 49 46 42 44 46 48 46 44 42 40 39 36
75 77 75 79 80 86 90 86 86 83 82 76 67 57 50 47 48 50 50 46 43 44 44 46 47 49 51 51 47 45 42 37
73 75 76 79 76 77 82 76 70 64 62 56 55 54 51 50 49 46 42 35 32 33 36 46 55 55 53 58 72 60 51 41
73 71 73 76 73 72 68 66 59 57 54 51 56 54 50 48 41 30 26 23 22 24 31 42 52 54 54 55 72 73 64 54
77 71 73 73 68 65 60 56 58 53 50 49 50 51 46 37 30 24 22 21 25 33 43 46 57 59 55 54 55 54 69 70
77 74 75 73 69 64 59 51 51 51 53 52 50 42 35 30 26 25 20 19 22 39 51 56 55 53 58 58 57 57 57 61
79 78 76 77 71 67 58 52 52 53 56 52 41 37 32 30 28 22 18 33 44 52 54 51 52 48 49 52 55 58 57 58
77 80 82 81 75 73 66 55 52 50 55 52 38 35 33 31 28 25 37 44 46 56 54 57 56 51 52 56 56 58 62 59
82 85 85 81 82 80 72 62 55 56 55 52 43 34 31 30 24 24 44 37 26 46 60 61 61 60 63 64 61 61 66 65

GFSFLT2_925_rhum_027.txt.gz
RH
98 98 95 84 56 52 50 63 55 44 43 38 32 36 36 36 40 51 50 48 47 41 40 40 37 36 35 34 33 33 56 59
100 92 78 69 62 72 69 60 52 40 42 39 36 38 41 39 40 47 50 49 50 50 43 39 38 37 36 35 34 34 49 52
98 90 61 76 75 67 64 59 51 59 45 35 36 50 46 42 44 47 50 52 48 46 41 39 37 36 35 34 32 35 41 53
93 84 77 63 60 56 50 58 34 38 37 37 42 45 43 46 49 53 55 55 48 43 39 36 35 34 34 34 35 34 36 49
95 88 79 69 57 50 48 31 42 45 40 40 42 44 44 47 55 56 56 50 44 39 37 36 36 36 37 37 36 35 35 38
90 75 68 69 65 60 50 54 55 45 45 47 46 44 51 63 59 52 48 43 39 38 38 38 39 39 39 38 38 37 38 36
98 85 76 72 67 69 53 54 40 43 60 64 64 61 59 60 50 44 43 41 41 41 39 39 40 42 42 42 40 38 38 38
96 100 96 76 82 66 43 42 45 58 65 70 71 69 61 52 48 46 46 43 41 40 40 43 44 45 44 41 39 40 39 36
95 96 84 91 85 56 40 48 54 62 71 75 70 65 59 54 50 48 44 42 40 42 45 48 48 47 44 42 42 41 38 34
92 88 87 95 87 53 45 56 65 72 76 76 72 66 61 53 49 47 45 42 44 47 49 49 48 48 47 46 41 36 34 32
88 80 74 89 81 54 53 62 76 80 79 76 72 62 55 52 51 45 43 47 47 47 48 47 54 54 52 50 41 43 38 36
86 78 82 87 78 60 63 75 85 85 83 80 71 62 58 53 46 44 47 48 49 48 38 39 49 54 47 52 51 44 40 39
84 83 79 87 82 73 79 82 90 89 87 80 74 69 58 49 46 48 50 50 42 37 37 44 58 52 54 54 54 50 44 42
88 85 79 83 78 72 82 81 90 94 88 83 80 68 55 50 49 50 48 39 32 32 40 59 60 53 52 53 47 51 52 48
86 84 76 76 74 76 83 89 87 81 75 70 68 60 54 51 50 46 35 25 21 23 30 47 53 55 55 45 47 41 52 57
86 87 77 80 77 81 80 83 77 70 66 62 61 57 53 51 44 31 23 20 20 28 36 40 52 56 60 56 55 58 43 41
86 87 81 81 80 80 78 77 74 62 60 55 58 56 52 45 35 27 20 16 27 41 48 45 43 44 55 61 64 61 61 47
85 89 86 87 77 76 74 70 66 61 57 55 53 50 43 36 30 24 20 24 50 62 48 42 44 50 57 57 50 45 44 47
88 90 86 90 79 78 75 68 63 56 52 52 52 49 44 36 32 28 19 48 64 44 38 46 47 51 61 59 59 56 58 57
84 86 85 92 86 80 76 71 67 62 59 58 55 52 49 42 35 25 32 48 40 46 49 55 47 57 59 63 66 67 69 65

GFSFLT2_925_rhum_030.txt.gz
RH
98 94 88 87 70 59 63 70 61 58 51 58 58 52 51 46 44 41 38 38 39 40 40 38 35 34 34 33 32 43 41 44
94 88 79 50 66 61 65 60 70 54 48 51 46 43 44 50 49 48 48 42 42 41 39 37 36 36 35 34 37 41 38 36
100 93 92 66 64 58 74 76 62 56 45 41 46 54 50 54 60 52 51 51 46 41 40 38 36 35 33 33 38 39 37 36
93 87 84 80 79 72 91 86 78 68 50 62 64 63 54 56 67 52 51 48 43 40 38 36 41 39 40 38 38 40 37 36
100 100 97 89 77 78 88 75 56 53 48 59 70 66 64 64 69 65 58 50 46 43 43 44 47 42 43 41 40 34 31 32
97 79 55 49 46 50 59 56 60 65 45 68 70 61 64 63 60 59 55 52 54 53 52 55 51 49 48 48 45 35 32 35
71 58 51 57 63 52 56 67 61 55 59 60 57 57 65 62 61 54 51 52 52 52 52 48 50 49 47 44 41 41 40 36
87 76 65 62 57 62 57 57 53 58 63 72 74 62 68 63 59 54 53 50 51 48 46 45 44 44 47 44 40 38 40 40
76 77 76 66 71 77 58 61 60 62 73 89 81 74 68 62 54 55 55 55 55 54 51 50 45 42 43 40 38 39 37 43
80 78 79 78 81 72 57 61 62 67 78 85 82 71 68 64 59 58 56 55 50 50 48 46 43 38 38 35 36 36 42 42
70 74 76 87 90 77 63 64 69 75 83 82 82 70 67 62 58 61 62 54 54 50 50 43 40 36 36 36 38 36 41 34
68 76 79 85 78 67 54 66 74 85 84 76 78 67 66 64 63 68 58 52 53 50 45 40 37 35 30 37 41 40 39 40
65 68 73 78 71 62 58 68 75 84 84 81 78 68 68 66 63 65 55 50 49 51 43 44 40 42 41 44 45 50 46 40
65 66 70 72 64 55 56 62 68 82 89 86 81 74 68 68 63 59 54 54 54 48 42 38 38 46 44 42 40 42 46 46
59 62 65 69 62 57 69 74 82 88 89 89 85 78 69 66 65 57 58 51 46 45 43 39 41 49 53 47 40 34 35 39
58 57 60 66 68 60 68 63 66 76 90 84 75 78 71 63 63 60 57 42 38 39 41 47 50 53 54 49 47 37 27 28
62 62 63 65 71 67 67 66 62 67 80 68 72 75 70 60 59 57 50 42 41 40 50 62 63 50 47 47 44 40 40 36
60 65 63 64 69 76 68 65 66 75 69 70 72 74 66 61 56 55 50 43 49 60 52 66 59 56 47 40 34 37 36 36
60 64 60 64 68 74 76 75 74 78 75 74 70 66 63 61 58 56 50 44 56 52 57 69 63 55 46 40 47 44 38 36
61 62 62 62 69 75 76 80 83 83 81 73 68 67 64 64 60 64 56 43 48 59 75 71 63 54 54 55 46 46 45 44

GFSFLT2_925_rhum_036.txt.gz
RH
100 100 93 80 77 72 67 72 75 81 77 68 59 52 52 52 47 43 37 38 37 33 34 34 34 35 34 34 34 35 42 56
92 89 84 89 84 81 85 84 81 76 68 65 57 43 37 37 42 40 40 40 38 35 35 36 35 35 36 36 35 33 45 53
95 92 90 78 78 86 86 85 81 72 66 62 48 46 42 47 40 41 42 41 39 38 37 36 36 33 34 35 34 32 46 52
94 92 88 77 74 65 54 81 78 67 55 52 58 59 63 52 42 42 43 42 40 39 39 40 40 39 37 36 32 28 41 42
99 89 88 68 64 71 79 74 66 54 60 57 57 66 58 49 50 48 46 44 41 40 42 51 45 41 39 37 32 28 41 41
99 90 84 82 80 69 54 59 58 61 68 62 62 62 53 50 52 54 48 45 43 45 54 51 43 45 44 40 32 29 45 46
96 90 81 67 61 52 46 55 63 63 67 66 60 57 62 55 60 60 52 53 50 52 52 49 47 44 40 35 36 35 33 54
100 90 85 75 73 68 67 76 72 66 50 50 47 60 58 58 61 58 55 54 53 52 48 46 43 42 41 34 34 33 35 46
89 81 80 92 93 91 87 80 54 49 48 48 58 52 56 60 59 56 54 52 51 47 43 41 40 37 36 37 36 34 38 38
93 98 89 75 76 68 66 60 46 41 44 52 51 57 60 62 61 55 53 52 51 49 45 43 39 35 33 33 33 34 38 39
77 78 63 62 60 54 46 42 51 54 48 61 65 66 65 66 61 56 55 55 53 46 46 42 39 34 34 35 36 37 39 37
56 58 55 56 50 44 47 52 52 51 48 61 62 67 69 67 63 58 57 56 52 47 45 42 38 36 34 33 38 40 40 38
60 60 63 62 64 66 68 51 53 54 55 66 70 67 69 67 66 60 60 58 52 50 47 40 38 36 36 38 37 42 44 42
74 75 70 66 72 75 65 53 49 52 59 68 66 78 66 67 68 63 65 61 52 50 51 44 40 37 46 48 67 55 50 50
65 69 73 72 73 62 62 47 46 48 62 60 66 72 67 67 67 66 66 62 54 53 51 43 42 42 47 54 67 67 51 50
56 54 56 58 57 54 51 45 44 48 65 70 66 68 74 70 67 67 64 62 58 56 53 46 40 46 49 55 53 53 59 58
54 51 53 54 56 56 50 44 42 43 51 60 68 76 78 80 70 65 66 63 59 56 53 49 43 52 57 57 68 72 51 53
53 50 50 49 51 51 52 49 46 50 53 58 68 68 71 80 74 67 68 65 65 66 74 55 60 60 60 76 81 79 48 50
51 53 51 49 49 53 52 53 50 52 53 60 74 78 77 79 75 66 67 71 79 84 76 62 64 67 75 86 80 62 41 46
47 49 50 47 48 51 57 54 56 62 58 60 68 76 74 72 73 70 69 83 88 83 59 63 58 67 84 90 79 54 51 48

GFSFLT2_925_rhum_042.txt.gz
RH
92 82 63 97 85 81 63 75 76 80 79 84 83 66 58 42 31 31 34 36 37 29 28 36 38 40 57 60 56 50 44 60
95 100 100 80 82 88 61 67 80 88 80 78 77 62 50 37 33 32 35 37 36 30 34 35 36 37 48 58 58 53 51 62
98 98 97 85 92 62 65 69 78 83 80 82 78 63 48 38 37 35 36 38 36 31 34 34 35 36 49 55 54 49 53 56
92 61 96 97 86 86 77 74 80 84 82 76 67 52 42 39 39 41 41 39 37 35 36 38 36 36 38 50 46 47 41 64
98 97 92 78 77 75 72 67 64 66 63 57 53 45 42 42 42 41 40 39 39 40 44 44 39 36 33 42 42 43 45 45
100 100 97 94 87 75 72 65 50 45 46 41 40 40 42 44 43 42 42 40 41 48 50 45 41 36 33 40 44 44 43 39
100 100 94 89 79 80 68 60 52 44 49 45 40 38 42 43 44 44 42 41 46 52 52 43 40 34 33 34 38 42 45 40
99 92 88 86 72 70 65 68 60 54 60 56 50 44 43 44 46 47 44 43 46 53 50 44 40 36 32 33 35 37 40 46
100 88 79 63 68 66 67 69 71 64 63 60 52 49 46 47 52 50 47 48 51 55 47 46 45 39 32 32 33 34 38 43
100 86 89 80 74 71 66 58 58 51 59 62 63 64 62 61 63 59 53 57 55 55 48 47 47 41 35 33 33 34 36 37
98 99 91 78 80 65 55 51 46 38 36 36 55 58 62 60 61 61 61 58 57 54 53 45 42 40 36 34 35 34 35 37
96 95 90 79 77 74 53 52 48 40 38 42 53 58 59 57 59 59 59 57 54 52 46 45 43 40 38 34 34 35 37 39
88 87 86 79 77 77 79 62 45 44 41 36 43 52 57 59 60 58 61 58 54 51 51 46 46 43 38 41 39 38 39 39
94 91 80 79 79 81 76 62 55 48 44 42 50 55 54 65 66 65 62 60 55 55 54 49 46 43 40 49 66 55 45 44
96 93 86 79 80 79 74 69 60 56 46 48 54 54 65 65 67 66 64 65 58 57 55 49 47 42 38 42 81 80 64 52
83 86 85 84 78 69 66 65 65 65 66 61 49 51 59 64 67 68 68 66 60 59 57 53 50 45 46 48 49 54 69 67
75 79 75 72 72 65 62 60 58 61 67 54 48 48 50 65 69 64 69 70 64 64 64 60 52 48 63 58 56 59 58 71
63 63 63 70 68 68 63 62 69 76 72 62 57 46 53 60 67 61 67 76 73 72 70 61 52 53 66 48 56 68 80 80
65 64 65 70 74 69 64 69 71 75 70 66 65 63 55 58 66 70 71 77 77 74 75 62 57 62 62 61 65 64 70 77
68 67 70 70 74 72 68 72 77 76 69 64 66 59 55 58 69 75 75 78 80 77 74 64 62 70 67 77 74 72 80 81

GFSFLT2_925_rhum_048.txt.gz
RH
87 86 82 79 77 74 51 69 85 76 80 85 86 86 87 82 61 43 49 61 63 64 59 51 46 43 45 48 58 68 76 82
83 90 100 91 80 60 53 64 61 63 78 82 82 69 70 54 40 44 56 63 63 61 58 56 50 49 46 48 54 68 77 80
100 100 99 90 72 58 78 73 73 70 80 80 61 53 43 38 37 39 38 42 49 56 57 58 54 52 47 44 51 68 78 81
100 100 100 98 89 70 65 53 62 78 75 66 48 37 38 36 37 37 37 36 36 39 48 54 55 53 50 46 52 67 76 80
99 100 99 100 100 76 83 88 75 63 60 57 41 37 38 37 36 38 38 38 37 41 46 50 51 49 49 50 58 67 76 80
100 99 96 98 98 98 67 63 65 64 58 50 40 37 38 38 35 36 36 40 39 36 39 39 47 50 46 49 56 61 63 75
100 96 96 90 91 99 95 90 83 62 55 44 39 39 39 39 37 35 37 41 42 39 38 37 41 49 47 46 52 50 53 56
100 100 98 99 100 97 96 82 67 49 67 50 43 40 41 40 39 38 40 46 43 41 42 37 38 43 46 45 43 47 45 44
100 100 100 99 100 98 97 90 86 77 69 55 46 43 44 42 40 40 43 48 48 48 42 35 35 42 39 40 40 40 40 38
100 100 99 100 92 91 94 93 73 84 61 60 48 45 44 43 43 42 43 51 52 52 43 40 35 34 36 35 39 40 38 39
100 100 100 100 98 97 93 92 85 68 63 62 52 48 47 45 45 45 44 47 54 54 47 42 39 36 34 34 36 36 38 38
100 100 96 98 100 99 86 75 69 53 65 59 55 50 48 47 49 48 46 47 51 58 52 48 46 42 38 36 36 38 38 37
100 100 100 93 93 93 80 77 75 54 55 68 54 51 53 52 60 60 51 53 56 58 60 54 52 50 44 44 41 39 38 36
100 99 99 100 95 95 84 78 75 65 72 78 63 65 64 67 60 69 73 70 64 63 61 60 58 52 46 49 59 48 43 41
99 98 96 98 93 93 80 71 70 65 64 59 63 62 58 60 61 65 66 67 65 63 63 64 61 53 47 45 74 66 59 45
97 98 94 87 88 83 77 74 70 66 60 53 51 51 49 47 51 57 61 64 68 65 65 63 59 53 55 46 49 49 68 66
94 96 97 93 86 79 75 74 70 63 63 52 46 44 44 42 45 49 56 66 67 69 70 68 59 54 54 54 52 57 56 60
100 96 94 93 87 78 70 74 72 70 66 59 48 43 42 39 41 44 50 58 70 72 74 76 74 65 64 59 55 59 65 65
100 99 97 93 90 86 83 81 78 75 71 67 64 54 44 43 50 46 46 54 55 68 74 86 86 82 82 73 65 58 54 58
96 98 96 93 91 87 83 82 79 74 69 69 63 61 56 53 56 52 48 51 60 67 82 94 95 94 95 91 86 75 67 61